CYGFM04

Last updated on Tue Sep 16 2025 00:02:22 GMT+0000 (Coordinated Universal Time)

1 41885U 16078B 25258.32507895 .00027464 00000+0 55768-3 0 9995 2 41885 34.9347 239.6621 0006878 114.1817 245.9623 15.45330571486237
UTC large
Height (km)
Speed (km/s)
/
Latitude / Longitude
Inclination (degrees)
Orbital Period (minutes)
Azimuth
Elevation
Range (km)
Doppler Factor

Next 0 passes for location: London (51.5072 / 0.1276)

Sorry there are no passes over London.